[[{"header":{"parameterUnit":"m.s-1","parameterCategory":1,"la1":30.2992,"la2":30.254,"lo1":-89.0895,"lo2":-89.0443,"dy":0.0025,"dx":0.0025,"nx":19,"ny":19,"refTime":"2026-04-24T21:00:00:Z","depth":0,"parameterNumber":2,"parameterNumberName":"U-component_of_WINDS"},"data":[0,0,0,0.1188,0.1188,0.12,0.12,0.122,0.1221,0,0,0,0,0,0,0,0,0,0,0,0.1187,0.1187,0.1188,0.1188,0.12,0.12,0.122,0.1221,0,0,0,0,0,0,0,0,0,0,0,0.1187,0.1187,0.1188,0.1188,0.12,0.12,0.122,0.121,0,0,0,0,0,0,0,0,0,0,0.1197,0.12,0.1187,0.1188,0.1188,0.12,0.12,0.1209,0.121,0.1217,0,0.1224,0,0.1222,0.1222,0.1222,0,0,0,0.1186,0.1199,0.1199,0.1188,0.1188,0.12,0.1194,0.121,0.1211,0.1219,0.1224,0.1225,0.1223,0.1222,0.1223,0.1267,0.1268,0,0,0.1186,0.1191,0.1198,0.12,0.1198,0.1194,0.1194,0.121,0.1217,0.1224,0.1225,0.1223,0.1223,0.1223,0.1267,0.1267,0,0,0,0.1185,0.1191,0.1191,0.1199,0.1201,0.1194,0.1195,0.1216,0.1215,0.1225,0.1223,0.1223,0.1223,0.1267,0.1267,0.1286,0,0,0,0.1185,0.119,0.119,0.1194,0.1201,0.1208,0.12,0.1214,0.1216,0.1223,0.1223,0.1223,0.1266,0.1267,0.1285,0.1295,0,0,0,0.1186,0.1191,0.1193,0.1194,0.1199,0.1208,0.1208,0.1214,0.1215,0.1222,0.1223,0.1266,0.1267,0.1284,0.1293,0.1308,0,0,0,0.1188,0.1211,0.1193,0.1218,0.1199,0.122,0.1208,0.1223,0.1232,0.1223,0.1266,0.1267,0.1284,0.1292,0.1307,0.1321,0.1328,0,0,0.122,0.1215,0.1229,0.1214,0.1238,0.1217,0.1245,0.1249,0.1245,0.126,0.1261,0.1286,0.1293,0.1308,0.1363,0.1368,0,0,0,0.1241,0.1251,0.1256,0.1264,0.1267,0.127,0.1268,0.1269,0.1281,0.1254,0.1295,0.1299,0.1308,0.1314,0.1319,0.1325,0.127,0.127,0.127,0.1294,0.1287,0.1309,0.1303,0.1311,0.1309,0.1315,0.1316,0.1307,0.1317,0.1322,0.1356,0.1364,0.1367,0.1374,0.1329,0.1329,0.1329,0.1329,0.134,0.1353,0.1339,0.1356,0.1349,0.1363,0.1361,0.1355,0.1367,0.1352,0.1359,0.1343,0.1373,0.1379,0.133,0.133,0.133,0.133,0.133,0.1374,0.1379,0.1379,0.1389,0.1398,0.1391,0.1403,0.1396,0.139,0.1397,0.1401,0.14,0.1399,0.1399,0.1399,0.1399,0.1399,0.1399,0.14,0.1409,0.1408,0.1419,0.1423,0.1426,0.1431,0.1428,0.1431,0.1434,0.1428,0.1428,0.1418,0.1377,0.1367,0.1401,0.1401,0.1401,0.1401,0.1401,0.1458,0.1445,0.1462,0.1466,0.1469,0.1478,0.1468,0.1476,0.1478,0.1485,0.1473,0.1444,0.1439,0.1435,0.1427,0.1474,0.1474,0.1474,0.1474,0.1487,0.1483,0.1498,0.1504,0.1509,0.1502,0.1521,0.1519,0.1515,0.1515,0.1507,0.1495,0.1492,0.1489,0.1484,0.1476,0.1536,0.1536,0.1536,0.1516,0.1512,0.153,0.1524,0.1526,0.1528,0.1546,0.1554,0.1547,0.1538,0.1516,0.1513,0.1494,0.1488,0.1479,0.1472,0.1457,0,0]},{"header":{"parameterUnit":"m.s-1","parameterCategory":1,"la1":30.2992,"la2":30.254,"lo1":-89.0895,"lo2":-89.0443,"dy":0.0025,"dx":0.0025,"nx":19,"ny":19,"refTime":"2026-04-24T21:00:00:Z","depth":0,"parameterNumber":3,"parameterNumberName":"V-component_of_WINDS"},"data":[0,0,0,3.8969,3.8974,3.9189,3.9189,3.9455,3.9457,0,0,0,0,0,0,0,0,0,0,0,3.8902,3.8904,3.8969,3.8974,3.9188,3.9189,3.9454,3.9457,0,0,0,0,0,0,0,0,0,0,0,3.8901,3.8903,3.8905,3.8975,3.9188,3.9189,3.9454,3.9295,0,0,0,0,0,0,0,0,0,0,3.9088,3.9022,3.8903,3.8906,3.8976,3.9188,3.919,3.9287,3.9305,3.9355,0,3.9399,0,3.9433,3.9475,3.9476,0,0,0,3.8977,3.9008,3.9069,3.8906,3.8978,3.9188,3.9093,3.9297,3.9317,3.9378,3.9403,3.9413,3.9437,3.9476,3.9478,3.9761,3.9763,0,0,3.8965,3.8938,3.9056,3.9082,3.905,3.9086,3.9099,3.9309,3.9334,3.9404,3.9419,3.9441,3.9478,3.948,3.976,3.9762,0,0,0,3.8929,3.893,3.8986,3.9071,3.911,3.9092,3.9107,3.9325,3.9346,3.9422,3.9444,3.9479,3.9483,3.9759,3.9761,3.9797,0,0,0,3.8922,3.8909,3.8981,3.8967,3.9106,3.9221,3.9118,3.9331,3.9356,3.9443,3.948,3.9485,3.9758,3.976,3.9793,3.9818,0,0,0,3.8889,3.8905,3.8935,3.8965,3.9056,3.9218,3.9251,3.9337,3.9369,3.9476,3.9486,3.9757,3.976,3.979,3.9813,3.9887,0,0,0,3.8846,3.8962,3.8935,3.9073,3.9054,3.9239,3.925,3.9388,3.9483,3.9481,3.9758,3.9761,3.9789,3.9809,3.9883,3.9945,3.9968,0,0,3.8977,3.8977,3.906,3.9043,3.9225,3.9208,3.9396,3.9507,3.954,3.9685,3.9693,3.9794,3.9812,3.9886,4.0105,4.0123,0,0,0,3.9093,3.9152,3.9207,3.9298,3.9387,3.9466,3.9552,3.9593,3.9718,3.961,3.9841,3.9852,3.9897,3.9928,3.9943,3.9984,3.9774,3.9773,3.9773,3.924,3.9278,3.942,3.9485,3.9572,3.9661,3.9736,3.9807,3.9818,3.9872,3.9915,4.0044,4.0079,4.0091,4.0133,3.995,3.995,3.9951,3.9951,3.9437,3.9528,3.9543,3.9685,3.9725,3.9844,3.9934,3.9939,4.0055,4.0014,4.0054,4.0007,4.011,4.0148,3.9954,3.9953,3.9953,3.9953,3.9952,3.9538,3.9589,3.9639,3.9776,3.9877,3.9937,4.005,4.0081,4.0111,4.0152,4.0202,4.0202,4.0206,4.0173,4.0174,4.0174,4.0175,4.0175,4.0175,3.9624,3.968,3.9772,3.9878,3.9941,4.0029,4.012,4.0183,4.0261,4.0275,4.0275,4.0282,4.0113,4.007,4.0183,4.0181,4.018,4.018,4.0179,3.9811,3.9775,3.9916,3.998,4.0109,4.0207,4.0247,4.0373,4.0429,4.0484,4.0482,4.0352,4.0353,4.0341,4.0306,4.0473,4.0473,4.0473,4.0473,3.9898,3.9902,4.0056,4.0156,4.0258,4.0308,4.0467,4.054,4.0608,4.0646,4.0626,4.0582,4.0568,4.0578,4.056,4.0529,4.0748,4.0749,4.0749,4.0016,4.0032,4.0162,4.023,4.0333,4.0421,4.0572,4.0686,4.0756,4.0761,4.0676,4.0664,4.0594,4.0569,4.0572,4.0544,4.0486,0,0]}]]